sat.trackr.live / text

‹ back to catalog

STARLINK-4255

NORAD 53003 · 2022-076T

PAYLOAD ACTIVE UNKNOWN

§ Identity

Operator
Country
US
Launch date
2022-07-07
Launch site
AFETR
Launch vehicle
Mass (kg)
RCS (m²)

Purposes: comms

External: N2YO · Heavens-Above · Gunter

§ Orbital elements

Epoch: 2026-05-25T04:06:06.065856Z

Period
95.44 min
Inclination
53.2136°
Eccentricity
0.0001181
Mean motion
15.08844048 rev/d
Perigee alt
538.9 km
Apogee alt
540.5 km
Semi-major
6,917.9 km
B*
9.3069e-5
RAAN
110.7802°
Arg perigee
84.0903°
Mean anomaly
276.0224°
Rev number
21,439

§ Raw data

STARLINK-42551 53003U 22076T   26145.17090354  .00001194  00000+0  93069-4 0  99902 53003  53.2136 110.7802 0001181  84.0903 276.0224 15.08844048214391

JSON: /api/v1/satellites/53003 · /tle

For live sub-satellite position, see the globe view (requires WebGL).

§ Visibility from observer

Set your observer location to see the next 7 days of passes ≥ 10°. The values pass through the URL so the page stays shareable.

No JS? Fill the form by hand. The geolocation button needs JavaScript.